Lyndonville, VT

11:21 PM EDT on May 24, 2018 (GMT -0400)
Lyndonville

Weather History for KCDA - May, 2013

Change the Weather History Date:

Tuesday, May 7, 2013

  Actual Average (K1V4) Record (K1V4)
Temperature  
Mean Temperature 62 °F -  
Max Temperature 80 °F 62 °F 85 °F (2000)
Min Temperature 43 °F 37 °F 22 °F (1967)
Degree Days  
Heating Degree Days 4    
Growing Degree Days 12 (Base 50)    
Moisture  
Dew Point 29 °F    
Average Humidity 32    
Maximum Humidity 65    
Minimum Humidity 9    
Precipitation  
Precipitation 0.00 in - - ()
Sea Level Pressure  
Sea Level Pressure 30.13 in    
Wind  
Wind Speed 3 mph (SSE)    
Max Wind Speed 9 mph    
Max Gust Speed -    
Visibility 10 miles    
Events      
Averages and records for this station are not official NWS values.
T = Trace of Precipitation, MM = Missing Value Source: NWS Daily Summary

Daily Weather History Graph

Daily Weather History Graph

Search for Another Location

Airport or City:

Astronomy

May. 07, 2013 Rise Set
Actual Time 5:29 AM EDT 8:00 PM EDT
Civil Twilight 4:56 AM EDT 8:33 PM EDT
Nautical Twilight 4:15 AM EDT 9:14 PM EDT
Astronomical Twilight 3:29 AM EDT 10:01 PM EDT
Moon 4:07 AM EDT (5/7) 5:52 PM EDT (5/7)
Length of Visible Light 15h 36m
Length of Day
14h 30m
Waning Crescent, 5% of the Moon is Illuminated
May 7
Waning Crescent
May 9
New
May 18
First Quarter
May 25
Full
May 31
Last Quarter

Hourly Weather History & Observations

Time (EDT) Temp. Dew Point Humidity Pressure Visibility Wind Dir Wind Speed Gust Speed Precip Events Conditions
12:15 AM 58.1 °F 22.1 °F 25% 30.14 in 10.0 mi SE 4.6 mph - N/A   Clear
12:35 AM 57.7 °F 23.4 °F 27% 30.14 in 10.0 mi SE 3.5 mph - N/A   Clear
12:55 AM 57.0 °F 24.6 °F 29% 30.14 in 10.0 mi SSE 3.5 mph - N/A   Clear
1:15 AM 56.3 °F 25.2 °F 30% 30.14 in 10.0 mi SSE 3.5 mph - N/A   Clear
1:35 AM 55.0 °F 25.7 °F 32% 30.14 in 10.0 mi SSE 3.5 mph - N/A   Clear
1:55 AM 55.6 °F 27.3 °F 34% 30.14 in 10.0 mi SSE 4.6 mph - N/A   Clear
2:15 AM 55.0 °F 28.0 °F 35% 30.14 in 10.0 mi Calm Calm - N/A   Clear
2:35 AM 54.3 °F 30.0 °F 39% 30.14 in 10.0 mi SSE 4.6 mph - N/A   Clear
2:55 AM 49.5 °F 29.5 °F 46% 30.14 in 10.0 mi Calm Calm - N/A   Clear
3:15 AM 49.5 °F 29.8 °F 47% 30.14 in 10.0 mi Calm Calm - N/A   Clear
3:35 AM 48.6 °F 30.2 °F 49% 30.14 in 10.0 mi Calm Calm - N/A   Clear
4:15 AM 47.7 °F 30.2 °F 51% 30.14 in 10.0 mi Calm Calm - N/A   Clear
4:35 AM 47.3 °F 30.9 °F 53% 30.14 in 10.0 mi Calm Calm - N/A   Clear
4:55 AM 43.9 °F 31.1 °F 61% 30.14 in 10.0 mi Calm Calm - N/A   Clear
5:15 AM 43.0 °F 31.1 °F 63% 30.14 in 10.0 mi Calm Calm - N/A   Clear
5:35 AM 43.7 °F 31.5 °F 62% 30.14 in 10.0 mi Calm Calm - N/A   Clear
5:55 AM 43.3 °F 31.3 °F 62% 30.15 in 10.0 mi Calm Calm - N/A   Clear
6:15 AM 43.3 °F 32.0 °F 64% 30.15 in 10.0 mi Calm Calm - N/A   Clear
6:35 AM 45.3 °F 34.0 °F 65% 30.16 in 10.0 mi Calm Calm - N/A   Clear
6:55 AM 46.6 °F 34.3 °F 62% 30.16 in 10.0 mi Calm Calm - N/A   Clear
7:15 AM 45.5 °F 34.2 °F 65% 30.16 in 10.0 mi Calm Calm - N/A   Clear
7:35 AM 50.2 °F 36.0 °F 58% 30.16 in 10.0 mi Calm Calm - N/A   Clear
7:55 AM 52.7 °F 36.5 °F 54% 30.16 in 10.0 mi Calm Calm - N/A   Clear
8:15 AM 54.7 °F 36.5 °F 50% 30.17 in 10.0 mi Calm Calm - N/A   Clear
8:35 AM 57.0 °F 39.4 °F 52% 30.18 in 10.0 mi South 3.5 mph - N/A   Clear
8:55 AM 57.7 °F 40.1 °F 52% 30.18 in 10.0 mi South 4.6 mph - N/A   Clear
9:15 AM 59.2 °F 40.1 °F 49% 30.17 in 10.0 mi South 6.9 mph - N/A   Clear
9:35 AM 60.6 °F 40.3 °F 47% 30.18 in 10.0 mi South 4.6 mph - N/A   Clear
9:55 AM 63.5 °F 40.8 °F 43% 30.17 in 10.0 mi South 4.6 mph - N/A   Clear
10:15 AM 64.9 °F 39.2 °F 39% 30.16 in 10.0 mi South 3.5 mph - N/A   Clear
10:35 AM 67.1 °F 39.4 °F 36% 30.16 in 10.0 mi South 3.5 mph - N/A   Clear
10:55 AM 69.3 °F 35.8 °F 29% 30.16 in 10.0 mi South 3.5 mph - N/A   Clear
11:15 AM 70.9 °F 34.3 °F 26% 30.15 in 10.0 mi East 4.6 mph - N/A   Clear
11:35 AM 72.5 °F 37.2 °F 28% 30.15 in 10.0 mi SSE 3.5 mph - N/A   Clear
11:55 AM 73.8 °F 34.7 °F 24% 30.14 in 10.0 mi SE 3.5 mph - N/A   Clear
12:15 PM 74.7 °F 31.8 °F 21% 30.13 in 10.0 mi East 3.5 mph - N/A   Clear
12:35 PM 75.7 °F 32.9 °F 21% 30.13 in 10.0 mi SSW 6.9 mph - N/A   Clear
12:55 PM 77.4 °F 31.3 °F 19% 30.12 in 10.0 mi Calm Calm - N/A   Clear
1:15 PM 77.2 °F 30.2 °F 18% 30.12 in 10.0 mi East 4.6 mph - N/A   Clear
1:55 PM 78.4 °F 28.6 °F 16% 30.11 in 10.0 mi SSW 3.5 mph - N/A   Clear
2:15 PM 78.4 °F 27.1 °F 15% 30.10 in 10.0 mi North 3.5 mph - N/A   Clear
2:35 PM 78.8 °F 24.4 °F 13% 30.09 in 10.0 mi East 3.5 mph - N/A   Clear
2:55 PM 79.5 °F 23.9 °F 13% 30.09 in 10.0 mi East 6.9 mph - N/A   Clear
3:15 PM 79.9 °F 25.3 °F 13% 30.08 in 10.0 mi South 4.6 mph - N/A   Clear
3:35 PM 80.4 °F 23.2 °F 12% 30.08 in 10.0 mi Calm Calm - N/A   Clear
3:55 PM 80.8 °F 19.9 °F 10% 30.07 in 10.0 mi WSW 9.2 mph - N/A   Clear
4:15 PM 80.4 °F 17.8 °F 10% 30.07 in 10.0 mi South 5.8 mph - N/A   Clear
4:35 PM 80.8 °F 16.3 °F 9% 30.06 in 10.0 mi South 4.6 mph - N/A   Clear
4:55 PM 80.8 °F 17.2 °F 9% 30.06 in 10.0 mi SSW 9.2 mph - N/A   Clear
5:15 PM 80.8 °F 16.9 °F 9% 30.06 in 10.0 mi SW 5.8 mph - N/A   Clear
5:35 PM 80.8 °F 17.6 °F 9% 30.06 in 10.0 mi SW 3.5 mph - N/A   Clear
5:55 PM 79.3 °F 18.7 °F 10% 30.06 in 10.0 mi SSW 3.5 mph - N/A   Clear
6:15 PM 79.2 °F 14.0 °F 9% 30.06 in 10.0 mi SW 5.8 mph - N/A   Clear
6:35 PM 78.4 °F 17.2 °F 10% 30.06 in 10.0 mi SW 5.8 mph - N/A   Clear
6:55 PM 77.4 °F 25.2 °F 15% 30.07 in 10.0 mi Calm Calm - N/A   Clear
7:15 PM 77.4 °F 23.7 °F 14% 30.08 in 10.0 mi Calm Calm - N/A   Clear
7:35 PM 76.6 °F 25.7 °F 15% 30.08 in 10.0 mi Calm Calm - N/A   Clear
7:55 PM 75.0 °F 26.4 °F 17% 30.08 in 10.0 mi Calm Calm - N/A   Clear
8:15 PM 72.1 °F 27.9 °F 19% 30.10 in 10.0 mi Calm Calm - N/A   Clear
8:35 PM 72.0 °F 25.0 °F 17% 30.10 in 10.0 mi NNE 4.6 mph - N/A   Clear
8:55 PM 68.0 °F 29.1 °F 23% 30.11 in 10.0 mi NNE 4.6 mph - N/A   Clear
9:15 PM 68.4 °F 29.7 °F 24% 30.12 in 10.0 mi Calm Calm - N/A   Clear
9:35 PM 66.2 °F 30.2 °F 26% 30.13 in 10.0 mi SSE 5.8 mph - N/A   Clear
9:55 PM 60.4 °F 35.1 °F 39% 30.13 in 10.0 mi SSW 3.5 mph - N/A   Clear
10:15 PM 68.4 °F 29.5 °F 23% 30.14 in 10.0 mi SSW 3.5 mph - N/A   Clear
10:35 PM 66.7 °F 30.0 °F 25% 30.14 in 10.0 mi SSW 3.5 mph - N/A   Clear
10:55 PM 64.9 °F 30.2 °F 27% 30.14 in 10.0 mi SSE 4.6 mph - N/A   Clear
11:15 PM 66.2 °F 29.8 °F 26% 30.15 in 10.0 mi South 4.6 mph - N/A   Clear
11:35 PM 59.7 °F 34.5 °F 39% 30.15 in 10.0 mi SSE 3.5 mph - N/A   Clear
11:55 PM 57.0 °F 35.4 °F 44% 30.15 in 10.0 mi Calm Calm - N/A   Clear